GFSSW_925_rhum_057.txt.gz
RH
16 17 16 14 11 10 20 21 20 16 19 20 17 17 29 28 27 46 42 20 17 20 20 29 33 37 53 58 57 49 61 76 66 59 82 72 68 56 52 70 59 51 56 49 45
17 16 16 14 10 10 21 20 16 16 17 19 15 21 33 32 54 55 18 21 21 21 17 27 33 33 43 46 44 48 57 56 43 45 67 81 68 52 56 64 62 54 48 47 45
18 18 16 14 12 11 22 19 17 16 17 16 15 28 34 41 61 32 13 27 19 21 14 24 27 30 44 41 41 38 51 40 38 40 50 75 91 46 54 62 56 61 55 47 46
17 17 15 16 14 11 22 18 18 16 15 15 18 34 31 62 42 28 23 24 19 14 18 28 35 33 43 41 34 42 32 31 31 47 69 84 93 70 65 81 73 55 48 46 46
18 19 16 16 15 12 22 19 20 19 18 18 32 36 51 54 32 16 20 19 19 19 23 28 41 35 39 33 29 32 28 23 29 49 67 73 65 71 71 70 66 52 47 46 44
20 26 30 26 21 14 22 19 21 25 29 34 28 35 53 51 12 14 19 26 28 30 22 26 38 30 29 29 28 23 22 20 20 44 58 58 66 64 64 56 69 53 50 46 44
31 36 37 37 29 16 21 18 20 28 28 31 52 54 50 46 12 10 12 31 27 25 19 24 31 36 24 26 19 17 19 16 19 30 47 56 76 72 59 57 58 54 49 46 44
42 40 40 36 32 23 20 17 19 24 30 51 54 68 58 18 9 9 10 15 27 22 16 20 26 31 24 19 19 18 16 22 18 26 31 37 74 80 80 75 57 55 51 49 44
45 41 39 36 32 26 20 16 17 22 25 48 68 66 41 9 9 9 9 13 22 21 17 14 17 27 23 24 30 26 24 19 17 15 33 41 81 84 81 72 58 56 54 50 48
46 42 39 37 31 26 20 16 20 27 35 65 50 45 29 13 8 9 9 9 17 18 18 18 27 30 28 28 39 34 21 17 16 16 33 44 84 80 76 70 64 53 51 49 48
45 42 40 36 28 26 21 20 42 45 31 34 28 23 10 7 7 8 10 11 17 22 33 29 38 38 28 24 21 20 20 17 12 10 28 46 78 86 78 70 79 80 57 50 48
46 42 40 32 23 20 21 35 15 14 21 15 18 13 6 6 8 10 13 14 22 30 28 31 39 29 22 21 20 19 20 19 15 10 14 47 63 66 74 69 78 89 56 49 44
48 45 39 29 20 17 20 21 14 14 21 14 9 8 6 6 8 11 13 17 22 27 30 30 24 21 21 22 17 18 21 19 17 12 23 54 66 65 57 56 72 84 70 52 42
53 47 46 28 26 23 26 16 13 13 28 16 10 7 6 6 8 6 6 9 15 24 21 24 19 17 20 20 17 21 14 13 12 14 21 44 76 70 63 71 76 78 82 68 46
53 46 43 40 30 35 19 13 14 14 37 11 9 7 6 8 8 8 6 8 13 14 16 20 17 20 20 15 12 15 13 13 14 15 16 14 19 65 59 87 76 80 70 58 63
45 43 35 43 44 25 22 14 14 27 31 12 10 10 9 8 8 9 9 8 9 12 12 13 10 14 17 14 12 11 12 14 15 19 24 16 16 24 68 72 76 62 61 55 57
36 35 37 31 33 18 14 18 32 30 11 12 11 9 9 10 9 9 10 13 14 15 17 15 14 12 11 15 12 12 16 28 30 27 27 15 15 15 53 53 63 61 60 55 52
35 31 25 31 19 19 15 28 36 17 14 8 8 8 9 10 10 11 10 13 12 11 14 16 16 9 10 16 20 16 17 31 34 33 24 17 21 18 9 44 49 46 54 62 56
44 42 37 28 23 16 26 37 27 18 15 14 10 10 10 8 9 11 12 14 12 18 19 24 19 13 10 11 16 20 25 14 21 19 26 20 16 13 11 27 47 46 48 57 60
63 53 32 19 16 15 31 31 25 20 17 18 22 18 22 17 14 15 14 12 15 16 18 22 27 16 11 10 14 18 16 26 23 32 36 26 24 24 16 11 41 48 50 63 66
62 50 22 22 19 31 37 33 26 18 19 22 24 25 26 26 25 26 24 20 18 17 18 20 22 22 14 14 14 17 21 20 24 32 37 32 25 16 19 24 40 45 45 56 57
55 46 21 22 38 35 36 27 30 22 20 22 22 25 32 30 30 28 27 24 18 20 26 24 26 31 21 14 12 13 15 18 28 30 34 39 34 17 21 30 30 37 36 55 62
65 38 19 20 38 34 27 25 24 25 28 28 27 26 28 34 40 34 31 24 23 23 41 30 37 41 29 16 15 18 14 12 13 13 16 23 29 26 24 25 28 33 32 44 61
63 43 34 28 28 34 36 35 36 27 30 27 30 32 37 41 33 36 33 26 30 29 28 29 32 38 46 38 29 29 23 19 18 16 17 17 17 11 26 26 23 28 27 40 60
54 37 34 44 39 36 35 37 34 38 31 31 35 34 40 47 42 39 34 36 33 33 35 35 42 38 32 27 25 26 24 21 22 22 24 16 16 27 24 23 23 20 20 24 31
53 56 44 40 35 36 42 46 40 43 44 40 46 41 42 47 49 52 43 42 42 35 42 40 57 38 40 29 28 31 28 26 24 19 17 17 14 12 15 14 15 14 14 15 18
43 37 48 39 37 42 44 42 40 44 41 37 45 54 51 44 41 39 37 36 35 40 49 56 74 77 65 41 41 49 30 28 26 22 18 20 19 16 20 20 18 19 20 19 16

GFSSW_925_rhum_060.txt.gz
RH
17 16 13 13 12 12 14 23 20 18 17 18 19 16 23 29 26 46 52 8 16 39 35 26 42 37 57 68 60 53 86 80 62 58 77 81 81 71 60 67 54 52 54 51 61
17 17 14 13 13 13 12 21 19 19 18 17 17 16 30 31 46 61 10 10 18 25 24 33 33 37 49 65 63 74 86 72 50 58 70 74 78 57 64 73 61 63 48 48 56
18 20 20 23 22 17 15 21 19 20 18 16 15 20 34 34 72 45 22 17 17 21 18 27 28 37 48 46 57 52 70 51 44 56 60 64 68 67 59 74 61 65 53 49 51
22 28 31 29 28 23 17 21 19 22 25 20 18 30 33 55 37 27 12 18 21 22 21 17 26 42 47 54 46 58 43 38 38 60 69 79 75 73 64 67 59 57 49 48 52
29 36 37 35 33 31 24 19 20 20 29 32 34 38 58 62 37 22 18 22 22 19 22 24 40 46 44 46 45 43 39 36 32 64 62 60 76 68 66 69 62 60 48 49 49
41 43 41 36 34 34 33 20 21 21 28 29 31 47 59 55 22 15 21 25 22 22 28 22 36 42 43 38 40 32 30 26 60 68 73 80 70 69 60 65 68 63 52 49 50
42 41 40 36 34 32 30 22 20 20 26 35 59 65 64 40 15 15 20 25 20 20 26 21 24 34 43 38 28 29 29 19 38 68 73 61 79 72 62 64 74 68 49 49 49
44 42 41 38 35 30 28 20 18 18 23 34 54 84 70 25 17 21 21 31 28 26 17 14 21 32 41 36 25 25 22 22 25 63 60 51 75 74 68 71 70 56 50 48 50
44 44 42 38 33 29 25 17 16 18 24 34 61 80 57 21 13 8 10 11 30 26 23 15 16 29 32 32 34 34 36 26 19 27 67 65 95 75 66 69 67 58 52 49 52
45 44 42 38 30 26 22 16 25 32 41 69 66 60 35 20 9 8 8 11 28 28 24 20 23 30 39 39 47 37 34 23 20 14 48 68 85 84 76 70 65 59 54 51 51
46 43 41 38 29 26 21 18 33 40 42 44 42 31 15 13 7 8 10 10 20 24 31 28 42 51 43 33 28 26 27 27 21 17 20 68 86 88 82 74 70 68 63 54 53
49 45 43 36 26 20 26 36 26 16 23 23 26 25 20 16 8 9 10 14 26 34 31 37 49 38 30 26 26 27 29 27 21 16 21 84 92 86 81 72 67 67 64 56 52
57 50 40 32 17 29 25 24 16 18 25 20 15 13 15 7 8 9 15 16 25 30 33 44 34 28 30 31 29 30 31 27 24 18 57 72 90 92 83 72 68 68 63 70 51
52 46 41 23 28 20 27 21 18 15 32 23 16 9 7 7 8 7 8 11 16 29 29 37 28 25 28 31 26 34 21 18 19 17 31 52 85 84 87 85 87 73 68 72 63
49 44 42 45 30 36 22 18 14 16 36 14 10 7 7 8 9 9 7 9 12 15 16 26 22 27 27 23 22 26 18 18 15 17 18 18 22 63 75 83 92 72 63 63 56
45 42 44 43 38 24 21 16 16 31 38 13 10 10 10 9 8 9 9 9 9 11 13 15 12 13 19 18 19 16 16 17 21 23 28 20 19 74 79 82 83 78 76 68 54
40 37 37 27 28 19 20 24 38 35 16 14 14 10 11 11 10 11 11 13 14 14 14 14 13 12 12 15 17 15 23 31 28 28 30 21 20 19 59 49 70 74 69 58 49
37 31 30 24 15 22 27 33 40 21 23 15 10 10 12 11 12 11 11 15 12 13 16 17 17 10 12 15 21 18 22 32 31 34 31 21 23 17 33 44 50 56 52 52 50
42 28 35 19 22 31 33 45 36 28 22 23 16 18 26 21 13 12 14 23 20 21 21 27 22 16 12 12 15 21 25 20 26 26 30 27 22 17 24 24 57 53 55 60 56
53 52 40 23 18 23 38 52 29 24 22 24 32 28 35 31 30 29 24 23 21 20 21 22 23 18 14 13 16 19 19 26 35 33 32 32 26 28 37 45 50 58 56 50 63
54 60 24 22 21 40 47 40 28 24 24 27 34 38 38 38 32 34 32 26 22 22 25 29 27 25 16 20 19 19 24 26 30 39 44 39 31 26 40 38 42 54 51 50 62
73 47 23 23 46 53 42 30 28 32 29 31 30 35 38 39 40 39 40 35 27 28 38 31 34 38 25 21 16 16 28 28 35 26 39 45 36 26 30 31 27 34 48 62 64
88 78 23 22 53 55 36 34 31 35 36 34 40 38 39 43 43 40 36 33 30 36 40 32 43 47 28 28 30 30 28 28 28 23 20 22 22 23 27 30 26 27 56 59 74
83 50 46 44 44 43 44 41 40 31 36 33 37 38 43 48 43 44 42 32 31 38 38 34 42 44 51 41 33 35 29 28 29 31 28 22 19 25 21 20 19 26 36 79 90
70 49 45 54 50 46 43 44 50 53 44 47 50 50 50 53 57 57 49 46 35 42 43 43 45 40 38 32 31 32 32 30 35 32 29 24 22 17 19 19 17 18 23 53 79
61 62 58 53 43 47 55 53 51 52 51 53 60 53 53 61 58 64 56 54 48 44 50 59 64 63 58 41 41 43 38 35 30 29 30 28 23 20 20 22 23 22 22 34 42
54 54 54 54 56 58 54 49 53 50 47 46 51 57 60 57 52 52 49 50 48 44 48 56 71 79 75 57 52 52 39 37 35 31 29 38 32 26 32 30 26 46 45 46 46

GFSSW_925_rhum_063.txt.gz
RH
20 22 24 25 26 26 19 19 22 21 20 18 17 17 17 32 34 48 55 8 10 28 35 43 49 50 69 74 66 59 86 88 67 65 81 71 84 78 69 62 46 58 57 70 76
23 30 34 36 30 27 26 20 24 20 22 18 16 16 24 43 54 67 9 9 28 35 47 51 50 41 59 76 70 80 94 85 59 60 72 78 74 78 67 64 58 54 61 70 82
30 37 39 36 31 31 32 26 24 22 22 25 20 17 35 47 79 43 28 9 26 35 30 28 34 40 51 50 74 69 79 59 48 58 62 73 70 59 63 71 64 62 69 68 80
36 42 43 40 37 34 32 32 25 25 22 29 28 29 36 62 25 28 12 9 19 26 18 21 32 48 51 58 50 65 52 50 43 55 60 69 67 70 66 64 56 51 60 65 72
42 41 40 39 38 36 33 30 26 24 24 31 34 36 53 62 36 25 10 15 22 23 22 23 39 46 52 51 49 57 49 41 37 53 56 55 65 68 71 68 62 50 56 63 64
43 43 43 41 37 36 34 28 26 23 23 34 38 35 58 36 24 20 15 23 25 26 24 28 35 42 47 42 45 38 38 38 45 66 56 61 71 65 70 73 70 53 55 55 60
43 44 43 40 38 37 31 26 24 21 23 34 69 65 70 30 27 20 21 24 23 21 30 19 30 37 45 48 36 37 43 34 72 69 73 67 76 73 75 70 76 60 52 53 53
45 46 44 40 35 34 27 22 19 18 22 38 59 78 69 26 31 26 27 33 28 23 20 18 20 30 40 40 32 28 26 26 66 74 66 72 68 80 77 77 81 69 54 52 51
45 46 44 37 32 33 26 19 18 20 25 52 75 74 55 27 34 23 21 32 35 35 25 18 21 31 29 40 42 37 38 30 42 73 71 78 79 76 73 76 78 69 57 52 54
46 44 41 34 32 35 22 23 40 33 63 78 74 62 34 20 11 10 12 25 37 31 27 25 26 31 44 48 60 38 35 29 24 66 71 82 84 78 72 72 74 66 59 53 53
46 36 38 34 33 26 26 37 34 37 60 39 32 37 24 19 8 10 10 25 24 31 40 28 34 45 41 41 36 29 30 31 26 21 20 79 77 86 76 76 72 71 65 55 52
57 43 41 33 27 24 32 31 24 20 28 28 33 34 26 22 16 9 10 16 28 34 32 43 46 39 35 33 31 30 32 33 26 20 24 39 81 86 85 76 72 71 67 59 53
55 45 42 32 22 35 27 23 26 24 28 22 21 21 17 20 14 8 12 16 29 34 37 44 36 32 35 36 34 32 36 33 30 24 66 84 87 94 88 76 73 71 65 63 53
56 50 42 28 31 31 29 24 20 20 34 23 20 14 10 8 8 8 14 14 18 33 34 37 31 32 32 36 36 42 30 27 25 22 25 60 77 88 90 90 80 78 73 66 54
55 50 46 36 41 41 25 20 16 18 35 17 12 8 8 8 9 9 8 9 16 16 29 34 24 36 34 28 29 34 26 25 22 20 20 23 38 57 95 94 84 84 76 68 58
53 54 46 32 36 24 20 17 16 31 30 14 10 10 10 9 9 10 10 10 10 12 13 14 12 16 24 22 24 21 22 20 25 26 28 22 23 57 90 80 74 75 74 67 59
44 46 35 25 25 18 23 25 34 36 20 21 13 11 11 11 10 11 12 13 15 17 14 12 12 12 13 16 16 20 25 33 29 32 30 23 23 22 61 68 61 68 71 58 60
39 28 31 23 20 26 24 33 44 28 28 22 16 14 18 12 12 13 16 27 20 16 18 18 16 11 13 14 19 22 24 34 32 36 29 24 23 21 34 41 55 55 56 56 60
31 28 29 23 26 30 36 46 41 35 27 27 25 33 34 28 21 17 28 35 25 25 20 26 21 17 13 13 16 21 25 21 35 31 28 28 22 21 39 42 44 60 66 66 63
45 44 30 27 25 24 52 50 34 32 29 29 37 36 46 37 32 32 35 30 32 26 23 25 24 20 17 15 16 18 21 28 34 35 31 31 31 48 46 40 41 64 65 65 63
50 46 26 25 23 41 56 38 34 30 28 35 39 43 41 44 42 39 47 31 34 29 30 31 27 22 18 23 22 29 34 34 36 37 42 40 46 33 45 38 38 51 59 58 56
64 46 26 25 43 58 51 39 34 36 33 37 38 43 42 46 49 45 51 45 36 33 42 33 40 34 28 27 22 26 32 36 41 33 42 45 47 25 35 31 27 69 67 55 62
81 79 25 24 50 57 40 38 38 42 42 38 42 40 42 46 50 48 44 33 38 43 55 34 45 40 27 26 33 35 32 32 36 32 33 28 32 20 23 21 24 60 82 88 84
62 52 47 46 52 46 45 52 48 38 45 45 50 45 46 54 54 54 48 38 37 43 47 37 51 46 50 43 37 37 34 33 38 47 41 28 30 23 25 25 24 31 49 78 86
64 53 52 64 55 53 51 48 54 57 47 52 55 57 54 73 64 64 57 50 38 45 50 45 61 55 42 39 38 36 41 37 35 34 40 33 32 24 28 27 30 40 47 53 64
66 65 57 60 50 54 62 55 55 54 50 55 62 55 60 67 63 67 59 56 52 49 50 61 69 60 60 55 48 44 38 36 36 32 33 34 32 29 33 34 53 53 47 47 48
66 66 54 62 61 60 58 51 52 49 50 50 52 59 60 56 55 56 56 51 48 50 54 62 71 75 72 70 52 50 45 43 38 33 34 41 43 59 58 53 63 62 55 52 49

GFSSW_925_rhum_069.txt.gz
RH
37 44 44 42 45 41 34 29 32 32 23 20 24 22 17 18 30 48 39 10 12 25 38 65 60 73 68 64 65 62 73 69 60 58 78 72 82 82 64 63 53 53 61 57 73
42 43 42 43 41 41 39 34 30 26 24 22 27 24 19 27 55 53 8 8 14 30 54 44 44 67 66 65 63 74 79 61 52 52 62 72 85 82 66 60 74 70 65 72 72
42 45 42 43 49 48 37 31 30 28 24 22 28 29 30 42 50 18 24 9 17 33 48 37 46 54 64 64 63 64 68 55 48 49 55 61 68 72 61 68 71 78 75 68 67
42 45 46 48 46 42 51 37 28 27 26 24 28 37 39 60 12 29 32 9 31 47 34 37 39 44 61 66 58 71 54 52 46 49 53 59 60 64 58 66 67 62 61 63 62
47 44 50 57 54 37 35 41 31 26 25 26 32 34 63 39 17 27 20 36 64 40 29 32 38 43 43 53 51 62 52 44 39 40 44 54 58 58 60 60 58 61 63 61 60
63 56 45 53 54 40 39 35 31 25 24 24 40 44 58 14 28 26 41 66 42 26 27 32 36 38 41 51 48 43 40 36 32 33 39 51 59 58 61 60 67 66 64 59 62
70 72 62 59 49 46 52 32 25 21 20 24 52 65 45 14 44 24 49 51 40 24 23 29 38 36 40 43 36 37 37 24 47 47 55 53 67 63 67 69 74 70 63 60 65
72 64 52 47 46 49 37 25 21 19 18 32 82 89 33 35 45 39 36 38 36 23 22 23 31 32 37 35 32 32 25 31 52 54 58 55 62 61 68 77 84 82 64 64 64
60 61 64 52 60 59 32 51 52 22 29 59 83 73 30 40 54 47 34 29 32 27 24 20 24 32 31 42 42 29 36 29 28 58 61 56 56 74 72 73 79 77 61 62 62
58 63 56 52 60 43 40 53 63 70 94 91 77 56 34 28 33 42 36 31 28 26 22 20 22 34 36 42 45 39 31 25 31 51 59 56 54 72 71 74 70 78 62 60 58
61 67 65 65 50 37 51 57 29 42 71 27 23 28 21 21 24 38 36 31 27 24 26 22 30 36 40 40 33 30 28 28 25 31 32 23 25 48 68 72 70 69 64 57 55
68 70 66 50 41 31 35 25 25 30 29 27 34 33 29 24 16 36 34 26 32 28 27 24 26 28 34 36 34 34 32 30 24 22 24 24 29 65 60 66 69 63 58 55 53
77 92 64 42 35 39 32 27 28 31 29 19 26 23 17 21 14 22 25 26 31 36 27 22 19 24 33 35 37 34 34 31 26 23 36 54 54 67 71 68 67 66 55 52 51
91 76 55 36 36 38 31 28 27 30 20 17 18 16 17 17 10 12 16 21 29 35 31 27 23 30 37 37 33 39 28 27 27 26 22 37 27 57 67 73 74 67 63 53 51
66 57 40 29 34 36 28 29 25 20 28 16 15 12 12 9 9 12 11 14 24 30 30 30 33 30 38 35 31 36 27 27 26 26 22 26 30 40 63 70 75 71 63 53 49
46 31 25 29 30 24 29 24 20 25 30 19 11 12 11 9 10 10 10 10 12 20 24 23 17 27 31 26 25 25 22 21 21 21 25 19 26 27 39 44 38 55 61 57 50
31 28 30 27 22 30 31 22 26 34 23 25 20 11 13 14 15 13 19 21 16 23 29 15 14 12 16 22 25 24 24 30 30 29 26 21 22 38 32 31 34 42 43 57 52
30 28 29 33 33 34 26 26 40 34 32 25 26 21 21 22 23 23 24 24 24 14 16 28 28 14 13 14 17 24 23 25 33 30 23 23 20 34 23 28 40 53 47 48 56
32 31 29 29 31 30 26 36 42 39 33 32 26 22 28 24 20 24 31 34 29 26 18 20 19 14 15 15 17 21 24 17 22 25 21 20 25 24 20 34 49 65 58 53 54
37 34 30 28 29 30 29 41 35 33 32 30 35 34 32 34 26 29 34 37 38 29 24 23 21 19 18 16 17 20 20 21 22 30 26 32 40 32 31 47 63 80 75 54 53
33 28 28 26 26 29 38 39 34 31 31 35 38 37 40 38 37 42 43 37 39 36 28 24 19 23 21 26 28 22 23 25 22 25 23 31 37 21 38 63 75 66 78 78 63
37 31 25 23 32 41 40 39 44 36 36 32 34 39 41 42 44 44 45 41 36 39 32 32 24 30 28 24 24 24 28 26 24 35 31 27 32 25 45 54 55 66 63 66 74
40 39 26 28 36 40 40 40 40 39 42 40 41 37 42 46 48 42 40 33 36 45 40 31 29 31 28 23 23 28 27 26 21 23 35 26 26 27 46 49 45 51 54 53 54
37 36 33 37 46 38 42 47 44 40 43 42 45 38 41 47 45 47 41 34 34 42 50 31 35 31 21 29 29 32 29 26 24 24 29 28 29 33 48 48 43 42 43 47 49
44 46 49 45 43 46 45 48 48 50 42 42 48 50 46 48 51 52 44 37 31 42 40 36 40 39 39 34 32 32 30 27 26 28 26 29 28 40 51 49 46 41 40 43 50
45 41 47 51 51 46 50 51 50 51 47 49 53 53 49 57 53 54 48 46 48 37 39 41 51 44 48 41 36 33 34 31 28 25 25 25 37 51 50 47 49 49 47 47 46
75 58 40 60 50 46 52 50 50 48 48 49 49 54 57 56 50 49 47 48 48 46 45 50 51 46 45 48 39 33 41 37 35 47 37 29 56 58 54 54 53 49 52 54 52

GFSSW_925_rhum_072.txt.gz
RH
51 48 42 41 41 39 34 30 32 28 24 24 24 27 19 16 20 55 21 12 16 50 63 47 37 45 50 43 47 49 60 49 46 54 68 62 67 62 49 48 43 42 44 42 51
43 50 49 46 44 42 38 31 29 33 26 22 26 29 21 21 52 24 17 11 14 48 44 28 30 44 44 43 47 56 59 44 38 38 57 77 74 61 60 56 50 50 41 48 52
44 49 55 55 49 42 37 36 29 27 29 23 26 32 28 56 30 11 26 8 17 33 31 22 28 34 39 38 45 45 51 38 36 36 41 58 71 75 59 61 49 52 48 46 49
47 44 44 49 44 46 49 33 31 26 25 24 25 33 33 57 10 24 27 9 21 40 28 23 27 34 34 42 41 55 42 40 34 33 38 44 45 54 63 59 56 47 44 44 44
43 44 58 45 36 47 52 39 29 26 24 23 24 32 63 25 8 44 26 12 37 35 24 21 24 22 28 28 39 53 40 35 31 27 29 36 48 50 54 54 48 46 43 42 41
84 63 58 44 43 53 42 34 29 24 22 23 25 32 40 13 30 39 32 37 32 25 18 18 17 17 19 27 31 32 34 31 24 22 26 40 43 43 49 45 48 46 43 40 40
96 96 80 54 41 45 43 33 22 19 19 23 28 65 30 11 37 29 38 30 24 19 16 17 20 20 19 25 25 29 32 27 28 26 34 38 54 55 50 51 53 46 42 40 40
97 92 81 53 48 52 46 35 40 23 20 22 40 59 19 26 36 32 33 31 21 18 16 21 22 18 19 24 26 28 26 29 30 29 35 39 57 56 54 65 62 48 41 43 42
96 77 75 66 58 39 41 76 74 23 22 46 69 46 18 44 35 25 22 25 20 18 18 19 22 20 23 23 22 23 27 26 35 31 37 40 46 53 54 65 64 73 47 43 44
67 74 87 64 66 47 39 58 75 66 72 66 55 35 26 21 28 27 23 20 17 16 16 17 19 22 21 17 21 22 25 25 25 37 33 37 42 55 54 56 64 73 51 45 43
75 90 96 64 56 41 64 59 37 42 37 18 14 16 18 20 28 24 25 21 18 18 18 16 20 19 17 17 18 16 22 25 22 30 27 24 20 40 48 52 60 72 53 46 42
96 99 93 45 37 34 59 20 20 22 19 17 19 17 18 15 19 20 22 24 21 18 15 18 19 14 16 20 26 23 24 24 20 18 21 17 17 33 35 45 52 66 61 47 42
94 84 56 42 31 39 27 21 25 25 19 15 15 15 14 14 14 24 19 18 22 16 17 16 13 15 25 29 29 24 22 24 22 19 18 22 24 39 41 40 52 50 45 43 41
65 54 40 32 43 33 22 28 27 26 16 15 13 12 13 12 11 17 18 16 18 23 16 13 13 17 24 28 24 24 20 22 24 22 22 18 26 32 46 48 63 60 48 41 40
38 32 24 29 34 21 25 28 24 21 21 13 12 11 11 12 10 16 16 14 20 21 22 17 15 18 23 24 23 22 22 23 22 23 21 17 21 38 35 47 70 66 55 42 44
33 30 24 32 39 26 29 26 20 20 26 15 11 13 12 8 9 12 14 10 13 18 21 18 13 16 20 23 24 23 23 21 21 20 26 17 18 24 29 33 31 45 50 46 38
30 28 31 30 22 33 32 16 19 23 17 18 13 12 10 10 11 13 14 15 20 27 27 20 22 18 19 27 24 24 22 24 24 23 21 14 18 31 26 29 34 36 32 43 39
30 28 34 36 35 37 21 19 30 25 23 17 16 11 13 12 15 15 17 19 15 15 20 21 25 19 19 23 26 25 20 18 26 21 17 17 19 26 25 35 43 42 32 29 40
34 37 23 27 33 30 19 25 33 30 26 24 15 15 16 15 15 18 20 20 20 17 19 20 20 12 13 12 14 23 24 13 16 15 14 16 27 20 24 42 48 58 41 36 38
39 25 23 25 30 21 20 35 30 27 26 23 23 22 18 17 16 16 20 26 24 21 17 16 23 15 14 12 13 16 15 21 17 22 22 17 24 27 36 54 53 69 77 49 41
31 21 22 24 25 19 26 30 27 25 25 27 27 26 28 24 21 25 28 27 28 25 20 16 17 18 15 18 18 16 17 17 14 15 17 21 24 23 45 60 62 62 66 70 75
20 23 22 25 23 23 27 29 36 25 24 26 27 28 30 29 29 31 32 31 29 28 23 20 14 18 19 18 17 18 18 17 18 24 18 17 28 31 40 52 60 59 56 54 55
23 22 21 20 26 29 28 28 27 27 29 27 29 29 30 34 38 31 29 28 28 28 28 24 21 24 22 18 19 19 19 18 17 16 20 17 29 34 40 47 52 50 49 49 48
21 22 20 22 26 26 27 30 31 27 29 29 30 27 29 32 31 36 31 27 26 29 42 27 22 29 20 20 17 24 20 18 18 18 19 19 34 40 40 43 42 44 43 43 45
23 26 32 25 26 25 25 28 31 33 28 28 30 30 32 35 34 36 30 27 25 29 28 25 28 26 26 22 20 20 19 18 20 20 21 23 27 38 39 38 37 34 35 42 45
24 24 24 29 33 26 31 33 33 34 32 35 36 32 32 40 38 39 33 32 34 26 27 24 34 29 30 26 24 23 22 21 18 19 20 20 34 33 37 37 37 37 38 40 40
38 32 25 45 27 25 32 32 34 35 37 34 36 38 40 41 35 34 31 31 33 33 32 31 31 34 26 29 24 23 21 20 20 23 21 23 36 36 37 39 40 36 39 44 42

GFSSW_925_rhum_075.txt.gz
RH
44 44 42 37 33 33 39 38 35 36 30 24 21 24 23 16 17 43 19 12 18 16 54 38 35 38 37 33 37 37 67 54 50 48 59 56 56 44 44 40 39 38 37 34 38
38 46 48 43 38 32 28 32 38 31 27 26 22 25 24 21 45 22 16 13 12 35 52 29 24 31 34 32 36 44 64 42 35 39 59 55 53 48 44 44 42 37 32 37 38
57 47 40 39 44 46 37 28 26 29 26 25 23 25 28 40 32 9 12 10 10 45 31 20 18 26 31 29 40 39 51 34 35 34 45 56 67 59 47 44 38 39 38 37 37
82 69 42 37 42 48 42 36 29 26 26 24 23 26 29 54 17 29 21 11 11 42 28 16 17 27 26 31 38 47 36 32 28 29 36 52 44 48 50 56 38 34 34 36 35
84 69 65 48 50 42 33 34 34 27 24 23 23 27 59 22 12 38 19 8 23 37 21 16 18 22 25 24 38 40 31 27 25 24 26 33 40 50 63 56 42 34 35 35 33
98 97 67 48 56 60 57 34 32 26 22 21 22 32 42 14 18 33 25 20 21 29 19 15 16 16 16 19 29 31 29 25 22 20 23 35 40 44 52 42 41 37 35 33 31
100 99 86 79 69 47 58 53 24 20 19 19 21 64 23 12 20 22 20 14 18 21 16 14 12 12 14 18 18 25 31 26 21 19 30 31 49 48 43 39 41 38 34 32 31
100 97 80 82 96 64 49 35 47 26 17 18 23 52 21 13 20 22 22 16 17 17 12 12 13 13 13 15 18 26 26 27 21 21 26 34 59 46 40 43 41 37 34 33 32
81 80 84 89 82 65 46 44 48 22 17 20 54 44 15 28 22 22 20 15 15 14 13 15 16 16 15 17 21 22 26 23 25 19 24 35 51 41 41 45 43 44 34 34 34
77 76 86 92 76 46 34 47 67 78 62 55 34 25 21 16 16 18 19 16 13 13 15 15 14 18 15 17 20 18 20 18 23 22 24 35 82 44 43 51 48 46 46 38 36
98 99 97 75 57 35 58 56 43 38 28 18 14 15 11 13 17 16 15 16 12 14 16 14 15 18 14 13 10 11 15 18 16 20 22 25 45 40 42 44 48 61 69 42 40
99 96 88 56 37 31 53 23 15 16 17 14 12 11 12 17 19 16 17 16 16 17 12 14 16 12 11 10 11 13 13 16 17 20 20 18 18 31 37 40 47 60 65 47 40
85 67 49 35 27 34 28 16 17 16 17 13 11 11 13 14 15 16 14 14 16 16 13 14 10 10 10 13 16 17 16 16 19 17 18 16 18 28 27 30 46 55 47 50 42
41 34 26 25 37 19 17 16 16 16 20 13 13 10 11 10 12 12 14 14 15 14 11 12 9 10 12 16 18 18 12 13 16 19 22 16 23 27 28 31 53 60 48 44 43
33 25 20 25 41 18 17 16 16 16 24 11 11 9 9 12 10 15 12 13 15 14 13 13 10 11 17 19 17 15 12 14 17 18 15 18 20 43 31 37 51 50 43 41 41
28 27 22 29 33 17 17 18 15 21 25 12 9 11 12 12 9 13 13 11 11 15 15 12 9 10 11 13 16 16 17 17 16 16 19 15 14 39 33 57 43 43 54 42 39
28 26 27 36 19 18 18 16 23 22 13 12 11 10 12 12 9 14 17 16 16 21 22 18 16 11 10 14 17 19 21 24 25 21 19 13 13 28 25 25 24 37 41 40 46
30 26 32 30 22 21 19 20 30 18 17 12 11 11 11 9 10 12 15 14 12 15 17 18 21 13 11 16 21 21 18 17 23 18 15 12 17 27 27 33 35 31 26 36 36
29 30 24 18 21 22 19 29 30 22 18 16 12 12 11 10 11 12 13 13 13 14 19 17 16 13 14 15 16 20 22 12 12 10 11 15 23 23 31 37 47 54 32 25 36
33 19 16 18 19 19 20 28 23 19 17 15 17 12 15 13 13 15 18 18 16 15 14 17 20 13 13 12 14 15 14 19 15 20 17 15 24 23 36 42 52 58 56 60 71
29 19 16 16 17 17 23 23 20 19 17 19 24 18 24 19 13 15 19 19 18 16 14 12 17 17 13 15 15 15 18 16 13 12 15 18 27 27 45 48 53 59 54 54 66
17 19 16 14 18 16 20 20 30 18 18 19 19 19 23 24 20 26 21 22 20 17 12 12 14 18 17 13 13 13 13 15 18 20 13 14 31 30 46 49 52 57 54 51 56
16 12 14 15 22 18 20 18 19 19 21 19 20 21 19 22 25 19 21 21 21 18 20 16 13 20 20 16 14 16 14 14 12 12 17 16 37 32 49 51 50 52 50 51 48
14 16 13 13 15 18 20 19 19 19 21 22 22 20 22 25 20 20 21 21 20 20 42 29 15 22 23 17 14 18 15 14 14 16 16 17 41 37 42 50 48 47 46 46 47
15 16 20 19 16 17 17 18 20 20 18 19 23 23 23 25 24 24 20 21 20 33 25 18 23 20 18 15 14 15 16 14 16 14 16 31 36 36 36 37 40 41 41 43 44
18 18 14 18 20 17 24 21 21 24 24 24 23 20 22 28 29 26 22 21 21 21 21 16 25 23 23 19 17 17 15 15 14 15 16 23 36 30 30 32 35 36 38 41 42
21 21 17 30 18 17 20 21 23 26 25 24 27 26 26 29 25 24 23 24 24 28 24 26 19 25 25 21 21 24 17 15 13 13 17 24 32 32 33 33 32 34 37 37 36